Big Piney, WY

12:27 AM MST on January 19, 2017 (GMT -0700)
Big Piney-Marbleton

Weather History for KBPI - February, 2013

Change the Weather History Date:

Wednesday, February 6, 2013

  Actual Average Record
Temperature  
Mean Temperature 20 °F 12 °F  
Max Temperature 36 °F 27 °F 49 °F (1995)
Min Temperature 4 °F -1 °F -43 °F (1989)
Degree Days  
Heating Degree Days 45 53  
Month to date heating degree days 265 320  
Since 1 July heating degree days 5739 6433  
Cooling Degree Days 0 0  
Month to date cooling degree days 0 0  
Year to date cooling degree days 0 0  
Moisture  
Dew Point 9 °F    
Average Humidity 71    
Maximum Humidity 96    
Minimum Humidity 45    
Precipitation  
Precipitation 0.00 in 0.02 in 0.03 in (2001)
Month to date precipitation T 0.07  
Year to date precipitation 0.07 0.38  
Sea Level Pressure  
Sea Level Pressure 30.10 in    
Wind  
Wind Speed 6 mph (North)    
Max Wind Speed 18 mph    
Max Gust Speed 23 mph    
Visibility 10 miles    
Events      
T = Trace of Precipitation, MM = Missing Value Source: NWS Daily Summary

Daily Weather History Graph

Daily Weather History Graph

Search for Another Location

Airport or City:

Trip Planner

Search our weather history database for the weather conditions in past years. The results will help you decide how hot, cold, wet, or windy it might be!

Date:

Astronomy

Feb. 06, 2013 Rise Set
Actual Time 7:28 AM MST 5:41 PM MST
Civil Twilight 6:59 AM MST 6:10 PM MST
Nautical Twilight 6:25 AM MST 6:44 PM MST
Astronomical Twilight 5:52 AM MST 7:16 PM MST
Moon 4:18 AM MST (2/6) 2:00 PM MST (2/6)
Length of Visible Light 11h 11m
Length of Day
10h 12m
Waning Crescent, 16% of the Moon is Illuminated
Feb 6
Waning Crescent
Feb 10
New
Feb 17
First Quarter
Feb 25
Full
Mar 4
Last Quarter

Hourly Weather History & Observations

Time (MST) Temp. Windchill Dew Point Humidity Pressure Visibility Wind Dir Wind Speed Gust Speed Precip Events Conditions
12:53 AM 10.0 °F - 8.1 °F 92% 29.99 in 10.0 mi Calm Calm - N/A   Clear
1:53 AM 12.0 °F 2.7 °F 8.1 °F 84% 29.96 in 10.0 mi NW 5.8 mph - N/A   Clear
2:53 AM 12.9 °F - 8.1 °F 81% 29.95 in 10.0 mi Calm Calm - N/A   Clear
3:53 AM 8.1 °F 1.4 °F 5.0 °F 87% 29.97 in 10.0 mi Variable 3.5 mph - N/A   Clear
4:53 AM 10.0 °F - 6.1 °F 84% 29.97 in 10.0 mi Calm Calm - N/A   Clear
5:53 AM 10.0 °F - 6.1 °F 84% 30.01 in 10.0 mi Calm Calm - N/A   Clear
6:53 AM 7.0 °F 0.1 °F 3.9 °F 87% 30.08 in 10.0 mi ESE 3.5 mph - N/A   Clear
7:53 AM 5.0 °F - 3.2 °F 92% 29.94 in 10.0 mi Calm Calm - N/A   Clear
8:53 AM 14.0 °F - 10.0 °F 84% 30.10 in 10.0 mi Calm Calm - N/A   Clear
9:53 AM 17.1 °F 11.7 °F 10.0 °F 74% 30.11 in 10.0 mi SE 3.5 mph - N/A   Clear
10:53 AM 21.9 °F 15.7 °F 12.9 °F 68% 30.10 in 10.0 mi SSE 4.6 mph - N/A   Clear
11:53 AM 27.0 °F 21.6 °F 15.1 °F 61% 30.09 in 10.0 mi SE 4.6 mph - N/A   Clear
12:53 PM 34.0 °F - 15.1 °F 46% 30.05 in 10.0 mi Calm Calm - N/A   Mostly Cloudy
1:53 PM 35.1 °F 27.4 °F 17.1 °F 48% 30.03 in 10.0 mi North 10.4 mph - N/A   Clear
2:53 PM 34.0 °F 24.2 °F 16.0 °F 48% 30.04 in 10.0 mi North 15.0 mph - N/A   Scattered Clouds
3:53 PM 32.0 °F 21.6 °F 14.0 °F 48% 30.11 in 10.0 mi North 15.0 mph 23.0 mph N/A   Clear
4:53 PM 30.0 °F 21.1 °F 16.0 °F 56% 30.13 in 10.0 mi North 10.4 mph - N/A   Clear
5:53 PM 21.9 °F 9.8 °F 12.9 °F 68% 30.19 in 10.0 mi North 12.7 mph - N/A   Clear
6:53 PM 19.0 °F 6.1 °F 12.0 °F 74% 30.25 in 10.0 mi NNW 12.7 mph - N/A   Clear
7:53 PM 17.1 °F 3.0 °F 9.0 °F 71% 30.29 in 10.0 mi North 13.8 mph - N/A   Clear
8:53 PM 15.1 °F 4.2 °F 8.1 °F 74% 30.26 in 10.0 mi NNW 8.1 mph - N/A   Clear
9:53 PM 10.9 °F 0.2 °F 5.0 °F 77% 30.29 in 10.0 mi NW 6.9 mph - N/A   Clear
10:53 PM 10.0 °F -1.9 °F 3.9 °F 76% 30.29 in 10.0 mi ENE 8.1 mph - N/A   Clear
11:53 PM 6.1 °F -4.3 °F 1.9 °F 83% 30.27 in 10.0 mi NNW 5.8 mph - N/A   Clear